| time (UTC) | temp F | wind direction | speed knots | gust knots | rain 1hr in | rain 24hr in | rain mn in | humidity % | barometer mb |
| 20260507145516 | 46 | 281 | 8.7 | 15.6 | 0.00 | 0.00 | 0.00 | 48 | 1012.8 |
| 20260507145016 | 46 | 259 | 10.4 | 13.9 | 0.00 | 0.00 | 0.00 | 52 | 1012.9 |
| 20260507144516 | 46 | 280 | 8.7 | 13.9 | 0.00 | 0.00 | 0.00 | 50 | 1012.9 |
| 20260507144036 | 45 | 286 | 8.7 | 14.8 | 0.00 | 0.00 | 0.00 | 50 | 1012.9 |
| 20260507143516 | 45 | 272 | 10.4 | 14.8 | 0.00 | 0.00 | 0.00 | 51 | 1013.0 |
| 20260507143037 | 45 | 286 | 8.7 | 15.6 | 0.00 | 0.00 | 0.00 | 50 | 1013.0 |
| 20260507142516 | 45 | 298 | 9.6 | 15.6 | 0.00 | 0.00 | 0.00 | 49 | 1013.0 |
| 20260507142016 | 45 | 282 | 7.8 | 13.0 | 0.00 | 0.00 | 0.00 | 51 | 1013.1 |
| 20260507141516 | 45 | 271 | 8.7 | 19.1 | 0.00 | 0.00 | 0.00 | 52 | 1013.1 |
| 20260507141016 | 45 | 285 | 8.7 | 19.1 | 0.00 | 0.00 | 0.00 | 51 | 1013.0 |
| 20260507140537 | 45 | 310 | 8.7 | 14.8 | 0.00 | 0.00 | 0.00 | 50 | 1013.0 |
| 20260507140017 | 45 | 304 | 10.4 | 14.8 | 0.00 | 0.00 | 0.00 | 51 | 1013.1 |
| 20260507135516 | 45 | 310 | 9.6 | 16.5 | 0.00 | 0.00 | 0.00 | 52 | 1013.1 |
| 20260507135016 | 45 | 266 | 9.6 | 16.5 | 0.00 | 0.00 | 0.00 | 54 | 1013.1 |
| 20260507134556 | 45 | 295 | 8.7 | 16.5 | 0.00 | 0.00 | 0.00 | 54 | 1013.0 |
| 20260507134017 | 45 | 285 | 5.2 | 14.8 | 0.00 | 0.00 | 0.00 | 55 | 1013.0 |
| 20260507133516 | 44 | 274 | 7.8 | 14.8 | 0.00 | 0.00 | 0.00 | 56 | 1013.0 |
| 20260507133016 | 44 | 282 | 6.1 | 11.3 | 0.00 | 0.00 | 0.00 | 60 | 1012.8 |
| 20260507132517 | 44 | 258 | 7.0 | 11.3 | 0.00 | 0.00 | 0.00 | 61 | 1012.7 |
| 20260507132036 | 44 | 273 | 7.0 | 11.3 | 0.00 | 0.00 | 0.00 | 62 | 1012.8 |
| 20260507131516 | 43 | 288 | 6.1 | 11.3 | 0.00 | 0.00 | 0.00 | 62 | 1012.9 |
| 20260507131016 | 43 | 275 | 7.0 | 11.3 | 0.00 | 0.00 | 0.00 | 63 | 1012.8 |
| 20260507130516 | 43 | 268 | 7.0 | 12.2 | 0.00 | 0.00 | 0.00 | 63 | 1012.8 |
| 20260507130017 | 43 | 264 | 7.8 | 12.2 | 0.00 | 0.00 | 0.00 | 64 | 1012.7 |
| 20260507125516 | 42 | 269 | 7.8 | 10.4 | 0.00 | 0.00 | 0.00 | 64 | 1012.7 |
| 20260507125038 | 42 | 290 | 6.1 | 10.4 | 0.00 | 0.00 | 0.00 | 64 | 1012.6 |
| 20260507124516 | 42 | 272 | 6.1 | 10.4 | 0.00 | 0.00 | 0.00 | 65 | 1012.6 |
| 20260507124016 | 42 | 280 | 6.1 | 9.6 | 0.00 | 0.00 | 0.00 | 66 | 1012.6 |
| 20260507123517 | 41 | 282 | 4.3 | 9.6 | 0.00 | 0.00 | 0.00 | 66 | 1012.6 |
| 20260507123016 | 41 | 269 | 5.2 | 9.6 | 0.00 | 0.00 | 0.00 | 68 | 1012.5 |
| 20260507122516 | 41 | 287 | 5.2 | 9.6 | 0.00 | 0.00 | 0.00 | 68 | 1012.6 |
| 20260507122016 | 41 | 288 | 5.2 | 9.6 | 0.00 | 0.00 | 0.00 | 69 | 1012.5 |
| 20260507121536 | 41 | 287 | 3.5 | 7.8 | 0.00 | 0.00 | 0.00 | 70 | 1012.6 |
| 20260507121036 | 41 | 281 | 4.3 | 10.4 | 0.00 | 0.00 | 0.00 | 71 | 1012.6 |
| 20260507120517 | 40 | 287 | 5.2 | 10.4 | 0.00 | 0.00 | 0.00 | 71 | 1012.6 |
| 20260507120016 | 40 | 283 | 5.2 | 9.6 | 0.00 | 0.00 | 0.00 | 72 | 1012.6 |
| 20260507115515 | 40 | 287 | 5.2 | 9.6 | 0.00 | 0.00 | 0.00 | 73 | 1012.6 |
| 20260507115037 | 40 | 277 | 4.3 | 7.8 | 0.00 | 0.00 | 0.00 | 74 | 1012.6 |
| 20260507114515 | 39 | 279 | 3.5 | 7.8 | 0.00 | 0.00 | 0.00 | 76 | 1012.5 |
| 20260507114016 | 38 | 285 | 4.3 | 7.0 | 0.00 | 0.00 | 0.00 | 77 | 1012.4 |
| 20260507113516 | 38 | 272 | 4.3 | 7.0 | 0.00 | 0.00 | 0.00 | 79 | 1012.3 |
| 20260507113016 | 37 | 268 | 2.6 | 6.1 | 0.00 | 0.00 | 0.00 | 81 | 1012.3 |
| 20260507112516 | 37 | 259 | 2.6 | 3.5 | 0.00 | 0.00 | 0.00 | 81 | 1012.3 |
| 20260507112015 | 36 | 257 | 2.6 | 6.1 | 0.00 | 0.00 | 0.00 | 82 | 1012.2 |
| 20260507111515 | 36 | 249 | 3.5 | 6.1 | 0.00 | 0.00 | 0.00 | 82 | 1012.1 |
| 20260507111016 | 36 | 252 | 2.6 | 5.2 | 0.00 | 0.00 | 0.00 | 82 | 1012.1 |
| 20260507110515 | 36 | 252 | 2.6 | 5.2 | 0.00 | 0.00 | 0.00 | 82 | 1012.1 |
| 20260507110015 | 35 | 247 | 2.6 | 4.3 | 0.00 | 0.00 | 0.00 | 82 | 1012.0 |
| 20260507105536 | 35 | 243 | 2.6 | 4.3 | 0.00 | 0.00 | 0.00 | 81 | 1011.9 |
| 20260507105016 | 36 | 236 | 2.6 | 4.3 | 0.00 | 0.00 | 0.00 | 81 | 1011.9 |
| 20260507104535 | 36 | 234 | 2.6 | 4.3 | 0.00 | 0.00 | 0.00 | 81 | 1012.0 |
| 20260507104016 | 36 | 226 | 2.6 | 4.3 | 0.00 | 0.00 | 0.00 | 81 | 1011.8 |
| 20260507103515 | 35 | 225 | 2.6 | 4.3 | 0.00 | 0.00 | 0.00 | 81 | 1011.9 |
| 20260507103016 | 35 | 232 | 1.7 | 4.3 | 0.00 | 0.00 | 0.00 | 80 | 1011.8 |
| 20260507102517 | 36 | 232 | 1.7 | 3.5 | 0.00 | 0.00 | 0.00 | 80 | 1011.7 |
| 20260507102015 | 36 | 241 | 1.7 | 3.5 | 0.00 | 0.00 | 0.00 | 80 | 1011.8 |
| 20260507101516 | 36 | 239 | 1.7 | 3.5 | 0.00 | 0.00 | 0.00 | 79 | 1011.8 |
| 20260507101016 | 36 | 235 | 1.7 | 3.5 | 0.00 | 0.00 | 0.00 | 79 | 1011.8 |
| 20260507100515 | 36 | 234 | 1.7 | 3.5 | 0.00 | 0.00 | 0.00 | 78 | 1011.8 |
| 20260507100016 | 37 | 232 | 1.7 | 3.5 | 0.00 | 0.00 | 0.00 | 77 | 1011.8 |
| 20260507095515 | 37 | 252 | 1.7 | 3.5 | 0.00 | 0.00 | 0.00 | 77 | 1011.7 |
| 20260507095015 | 37 | 257 | 1.7 | 2.6 | 0.00 | 0.00 | 0.00 | 77 | 1011.7 |
| 20260507094516 | 37 | 253 | 1.7 | 2.6 | 0.00 | 0.00 | 0.00 | 76 | 1011.7 |
| 20260507094015 | 37 | 254 | 1.7 | 2.6 | 0.00 | 0.00 | 0.00 | 75 | 1011.7 |
| 20260507093515 | 38 | 233 | 0.9 | 3.5 | 0.00 | 0.00 | 0.00 | 75 | 1011.7 |
| 20260507093015 | 38 | 230 | 0.9 | 3.5 | 0.00 | 0.00 | 0.00 | 74 | 1011.8 |
| 20260507092557 | 38 | 219 | 0.9 | 1.7 | 0.00 | 0.00 | 0.00 | 74 | 1011.8 |
| 20260507092016 | 39 | 232 | 0.9 | 1.7 | 0.00 | 0.00 | 0.00 | 74 | 1011.8 |
| 20260507091516 | 39 | 233 | 0.0 | 2.6 | 0.00 | 0.00 | 0.00 | 73 | 1011.8 |
| 20260507091015 | 39 | 241 | 0.9 | 2.6 | 0.00 | 0.00 | 0.00 | 72 | 1011.8 |
| 20260507090515 | 39 | 252 | 0.9 | 2.6 | 0.00 | 0.00 | 0.00 | 72 | 1011.9 |
| 20260507090057 | 39 | 271 | 0.0 | 1.7 | 0.00 | 0.00 | 0.00 | 72 | 1011.9 |
| 20260507085515 | 40 | 269 | 0.9 | 2.6 | 0.00 | 0.00 | 0.00 | 71 | 1012.0 |
| 20260507085015 | 40 | 270 | 1.7 | 3.5 | 0.00 | 0.00 | 0.00 | 71 | 1012.0 |
| 20260507084515 | 40 | 279 | 1.7 | 5.2 | 0.00 | 0.00 | 0.00 | 70 | 1012.0 |
| 20260507084015 | 40 | 281 | 2.6 | 5.2 | 0.00 | 0.00 | 0.00 | 70 | 1012.0 |
| 20260507083515 | 40 | 283 | 1.7 | 6.1 | 0.00 | 0.00 | 0.00 | 69 | 1011.9 |
| 20260507083016 | 40 | 282 | 2.6 | 6.1 | 0.00 | 0.00 | 0.00 | 69 | 1012.0 |
| 20260507082516 | 40 | 289 | 2.6 | 6.1 | 0.00 | 0.00 | 0.00 | 68 | 1011.9 |
| 20260507082016 | 40 | 283 | 2.6 | 6.1 | 0.00 | 0.00 | 0.00 | 68 | 1012.0 |
| 20260507081535 | 40 | 282 | 3.5 | 6.1 | 0.00 | 0.00 | 0.00 | 68 | 1012.0 |
| 20260507081015 | 41 | 291 | 2.6 | 7.0 | 0.00 | 0.00 | 0.00 | 67 | 1012.0 |
| 20260507080515 | 41 | 287 | 2.6 | 7.0 | 0.00 | 0.00 | 0.00 | 67 | 1012.0 |
| 20260507080015 | 41 | 288 | 2.6 | 6.1 | 0.00 | 0.00 | 0.00 | 67 | 1012.0 |
| 20260507075515 | 41 | 298 | 2.6 | 6.1 | 0.00 | 0.00 | 0.00 | 67 | 1012.0 |
| 20260507075015 | 41 | 302 | 3.5 | 7.0 | 0.00 | 0.00 | 0.00 | 67 | 1011.9 |
| 20260507074515 | 41 | 300 | 2.6 | 7.0 | 0.00 | 0.00 | 0.00 | 68 | 1011.9 |
| 20260507074015 | 41 | 303 | 2.6 | 6.1 | 0.00 | 0.00 | 0.00 | 68 | 1012.0 |
| 20260507073535 | 41 | 299 | 2.6 | 6.1 | 0.00 | 0.00 | 0.00 | 68 | 1012.0 |
| 20260507073015 | 41 | 294 | 2.6 | 5.2 | 0.00 | 0.00 | 0.00 | 69 | 1012.0 |
| 20260507072535 | 41 | 291 | 2.6 | 6.1 | 0.00 | 0.00 | 0.00 | 69 | 1012.1 |
| 20260507072015 | 41 | 282 | 2.6 | 6.1 | 0.00 | 0.00 | 0.00 | 69 | 1012.1 |
| 20260507071517 | 41 | 292 | 2.6 | 6.1 | 0.00 | 0.00 | 0.00 | 70 | 1012.1 |
| 20260507071015 | 42 | 302 | 3.5 | 6.1 | 0.00 | 0.00 | 0.00 | 70 | 1012.0 |
| 20260507070515 | 42 | 298 | 2.6 | 6.1 | 0.00 | 0.00 | 0.00 | 70 | 1012.0 |
| 20260507070015 | 42 | 293 | 3.5 | 7.0 | 0.00 | 0.00 | 0.00 | 69 | 1012.0 |
| 20260507065515 | 42 | 300 | 4.3 | 9.6 | 0.00 | 0.00 | 0.00 | 69 | 1012.0 |
| 20260507065016 | 42 | 304 | 4.3 | 9.6 | 0.00 | 0.00 | 0.00 | 69 | 1012.0 |
| 20260507064515 | 42 | 293 | 4.3 | 7.8 | 0.00 | 0.00 | 0.00 | 69 | 1012.0 |
| 20260507064015 | 43 | 290 | 4.3 | 7.8 | 0.00 | 0.00 | 0.00 | 68 | 1012.1 |
| 20260507063515 | 43 | 295 | 3.5 | 7.0 | 0.00 | 0.00 | 0.00 | 68 | 1012.1 |
| 20260507063035 | 43 | 296 | 4.3 | 7.8 | 0.00 | 0.00 | 0.00 | 68 | 1012.1 |
| 20260507062515 | 43 | 302 | 5.2 | 7.8 | 0.00 | 0.00 | 0.00 | 68 | 1012.2 |
| 20260507062015 | 44 | 298 | 4.3 | 8.7 | 0.00 | 0.00 | 0.00 | 67 | 1012.1 |
| 20260507061516 | 44 | 306 | 5.2 | 8.7 | 0.00 | 0.00 | 0.00 | 67 | 1012.1 |
| 20260507061016 | 44 | 292 | 4.3 | 7.8 | 0.00 | 0.00 | 0.00 | 67 | 1012.0 |
| 20260507060536 | 44 | 279 | 4.3 | 7.8 | 0.00 | 0.00 | 0.00 | 66 | 1012.0 |
| 20260507060015 | 44 | 273 | 3.5 | 7.8 | 0.00 | 0.00 | 0.00 | 66 | 1012.0 |
| 20260507055515 | 44 | 267 | 2.6 | 6.1 | 0.00 | 0.00 | 0.00 | 65 | 1012.0 |
| 20260507055035 | 44 | 266 | 3.5 | 6.1 | 0.00 | 0.00 | 0.00 | 64 | 1011.9 |
| 20260507054515 | 44 | 271 | 3.5 | 5.2 | 0.00 | 0.00 | 0.00 | 63 | 1012.0 |
| 20260507054015 | 44 | 273 | 3.5 | 5.2 | 0.00 | 0.00 | 0.00 | 62 | 1012.0 |
| 20260507053515 | 44 | 283 | 2.6 | 6.1 | 0.00 | 0.00 | 0.00 | 62 | 1012.0 |
| 20260507053036 | 44 | 277 | 2.6 | 6.1 | 0.00 | 0.00 | 0.00 | 62 | 1012.0 |
| 20260507052557 | 44 | 274 | 2.6 | 6.1 | 0.00 | 0.00 | 0.00 | 61 | 1012.1 |
| 20260507052057 | 44 | 283 | 2.6 | 5.2 | 0.00 | 0.00 | 0.00 | 62 | 1012.1 |
| 20260507051517 | 44 | 279 | 1.7 | 3.5 | 0.00 | 0.00 | 0.00 | 62 | 1012.0 |
| 20260507051017 | 44 | 264 | 1.7 | 5.2 | 0.00 | 0.00 | 0.00 | 64 | 1012.1 |
| 20260507050517 | 44 | 265 | 2.6 | 5.2 | 0.00 | 0.00 | 0.00 | 63 | 1012.0 |
| 20260507050017 | 44 | 272 | 1.7 | 3.5 | 0.00 | 0.00 | 0.00 | 64 | 1012.0 |
| 20260507045518 | 44 | 267 | 0.9 | 2.6 | 0.00 | 0.00 | 0.00 | 65 | 1011.9 |
| 20260507045017 | 44 | 277 | 0.9 | 2.6 | 0.00 | 0.00 | 0.00 | 64 | 1012.0 |
| 20260507044517 | 44 | 277 | 0.9 | 1.7 | 0.00 | 0.00 | 0.00 | 65 | 1011.9 |
| 20260507044017 | 44 | 277 | 0.9 | 1.7 | 0.00 | 0.00 | 0.00 | 65 | 1012.0 |
| 20260507043518 | 44 | 281 | 0.9 | 1.7 | 0.00 | 0.00 | 0.00 | 65 | 1012.0 |
| 20260507043057 | 44 | 284 | 0.9 | 1.7 | 0.00 | 0.00 | 0.00 | 64 | 1012.0 |
| 20260507042517 | 45 | 284 | 0.9 | 1.7 | 0.00 | 0.00 | 0.00 | 64 | 1012.0 |
| 20260507042017 | 45 | 0.0 | 0.0 | 0.00 | 0.00 | 0.00 | 63 | 1012.0 | |
| 20260507041517 | 45 | 0.0 | 0.0 | 0.00 | 0.00 | 0.00 | 61 | 1012.0 | |
| 20260507041017 | 45 | 0.0 | 0.0 | 0.00 | 0.00 | 0.00 | 61 | 1012.0 | |
| 20260507040517 | 45 | 0.0 | 0.0 | 0.00 | 0.00 | 0.00 | 60 | 1012.1 | |
| 20260507040018 | 45 | 0.0 | 0.0 | 0.00 | 0.00 | 0.00 | 58 | 1012.0 | |
| 20260507035515 | 45 | 0.0 | 0.0 | 0.00 | 0.00 | 0.00 | 57 | 1012.1 | |
| 20260507035036 | 45 | 0.0 | 0.0 | 0.00 | 0.00 | 0.00 | 57 | 1012.1 | |
| 20260507034535 | 45 | 0.0 | 0.0 | 0.00 | 0.00 | 0.00 | 56 | 1012.1 | |
| 20260507034015 | 46 | 0.0 | 0.0 | 0.00 | 0.00 | 0.00 | 56 | 1012.1 | |
| 20260507033515 | 46 | 0.0 | 1.7 | 0.00 | 0.00 | 0.00 | 56 | 1012.1 | |
| 20260507033015 | 46 | 277 | 0.0 | 1.7 | 0.00 | 0.00 | 0.00 | 57 | 1012.1 |
| 20260507032515 | 46 | 277 | 0.0 | 3.5 | 0.00 | 0.00 | 0.00 | 57 | 1012.2 |
| 20260507032035 | 46 | 276 | 0.9 | 3.5 | 0.00 | 0.00 | 0.00 | 53 | 1012.1 |
| 20260507031515 | 46 | 287 | 0.9 | 2.6 | 0.00 | 0.00 | 0.00 | 53 | 1012.1 |
| 20260507031015 | 46 | 280 | 0.9 | 1.7 | 0.00 | 0.00 | 0.00 | 54 | 1012.1 |
| 20260507030515 | 47 | 325 | 0.9 | 2.6 | 0.00 | 0.00 | 0.00 | 52 | 1012.1 |
| 20260507030015 | 47 | 335 | 1.7 | 2.6 | 0.00 | 0.00 | 0.00 | 54 | 1012.2 |
| 20260507025515 | 47 | 287 | 0.9 | 2.6 | 0.00 | 0.00 | 0.00 | 51 | 1012.2 |
| 20260507025035 | 47 | 284 | 0.9 | 1.7 | 0.00 | 0.00 | 0.00 | 52 | 1012.3 |
| 20260507024515 | 47 | 304 | 0.9 | 3.5 | 0.00 | 0.00 | 0.00 | 51 | 1012.2 |
| 20260507024015 | 47 | 311 | 1.7 | 3.5 | 0.00 | 0.00 | 0.00 | 49 | 1012.2 |
| 20260507023515 | 47 | 319 | 1.7 | 3.5 | 0.00 | 0.00 | 0.00 | 49 | 1012.2 |
| 20260507023015 | 47 | 307 | 1.7 | 3.5 | 0.00 | 0.00 | 0.00 | 49 | 1012.2 |
| 20260507022515 | 47 | 317 | 0.9 | 2.6 | 0.00 | 0.00 | 0.00 | 48 | 1012.1 |
| 20260507022016 | 48 | 316 | 0.9 | 2.6 | 0.00 | 0.00 | 0.00 | 48 | 1012.0 |
| 20260507021515 | 48 | 324 | 1.7 | 3.5 | 0.00 | 0.00 | 0.00 | 48 | 1012.0 |
| 20260507021016 | 48 | 329 | 1.7 | 3.5 | 0.00 | 0.00 | 0.00 | 48 | 1012.0 |
| 20260507020515 | 48 | 320 | 1.7 | 3.5 | 0.00 | 0.00 | 0.00 | 48 | 1012.0 |
| 20260507020016 | 48 | 309 | 0.9 | 3.5 | 0.00 | 0.00 | 0.00 | 47 | 1011.8 |
| 20260507015515 | 48 | 307 | 1.7 | 3.5 | 0.00 | 0.00 | 0.00 | 46 | 1011.8 |
| 20260507015016 | 48 | 311 | 1.7 | 3.5 | 0.00 | 0.00 | 0.00 | 46 | 1011.7 |
| 20260507014515 | 48 | 324 | 1.7 | 3.5 | 0.00 | 0.00 | 0.00 | 46 | 1011.6 |
| 20260507014015 | 48 | 323 | 1.7 | 3.5 | 0.00 | 0.00 | 0.00 | 46 | 1011.7 |
| 20260507013515 | 49 | 319 | 1.7 | 2.6 | 0.00 | 0.00 | 0.00 | 46 | 1011.7 |
| 20260507013056 | 49 | 332 | 1.7 | 3.5 | 0.00 | 0.00 | 0.00 | 46 | 1011.6 |
| 20260507012516 | 49 | 309 | 1.7 | 3.5 | 0.00 | 0.00 | 0.00 | 46 | 1011.6 |
| 20260507012036 | 49 | 290 | 0.9 | 2.6 | 0.00 | 0.00 | 0.00 | 45 | 1011.6 |
| 20260507011515 | 49 | 295 | 1.7 | 2.6 | 0.00 | 0.00 | 0.00 | 44 | 1011.6 |
| 20260507011017 | 49 | 298 | 0.9 | 3.5 | 0.00 | 0.00 | 0.00 | 44 | 1011.6 |
| 20260507010516 | 49 | 296 | 1.7 | 3.5 | 0.00 | 0.00 | 0.00 | 44 | 1011.5 |
| 20260507010017 | 49 | 280 | 1.7 | 3.5 | 0.00 | 0.00 | 0.00 | 44 | 1011.5 |
| 20260507005517 | 49 | 273 | 1.7 | 3.5 | 0.00 | 0.00 | 0.00 | 44 | 1011.6 |
| 20260507005017 | 49 | 273 | 1.7 | 6.1 | 0.00 | 0.00 | 0.00 | 43 | 1011.4 |
| 20260507004518 | 50 | 285 | 2.6 | 6.1 | 0.00 | 0.00 | 0.00 | 42 | 1011.5 |
| 20260507004018 | 50 | 289 | 2.6 | 5.2 | 0.00 | 0.00 | 0.00 | 42 | 1011.4 |
| 20260507003537 | 50 | 290 | 1.7 | 3.5 | 0.00 | 0.00 | 0.00 | 42 | 1011.4 |
| 20260507003017 | 50 | 279 | 1.7 | 5.2 | 0.00 | 0.00 | 0.00 | 42 | 1011.4 |
| 20260507002517 | 50 | 273 | 2.6 | 7.0 | 0.00 | 0.00 | 0.00 | 42 | 1011.2 |
| 20260507002037 | 50 | 275 | 3.5 | 8.7 | 0.00 | 0.00 | 0.00 | 42 | 1011.2 |
| 20260507001517 | 50 | 273 | 3.5 | 8.7 | 0.00 | 0.00 | 0.00 | 42 | 1011.1 |
| 20260507001017 | 50 | 275 | 2.6 | 7.0 | 0.00 | 0.00 | 0.00 | 42 | 1011.1 |
| 20260507000518 | 50 | 284 | 3.5 | 8.7 | 0.00 | 0.00 | 0.00 | 41 | 1011.1 |
| 20260507000018 | 50 | 293 | 5.2 | 8.7 | 0.00 | 0.00 | 0.00 | 41 | 1011.0 |
| 20260506235517 | 50 | 303 | 3.5 | 7.0 | 0.00 | 0.00 | 0.00 | 41 | 1011.0 |
| 20260506235017 | 50 | 308 | 2.6 | 5.2 | 0.00 | 0.00 | 0.00 | 41 | 1011.1 |
| 20260506234518 | 51 | 288 | 2.6 | 8.7 | 0.00 | 0.00 | 0.00 | 40 | 1011.0 |
| 20260506234018 | 51 | 275 | 5.2 | 8.7 | 0.00 | 0.00 | 0.00 | 39 | 1011.0 |
| 20260506233537 | 51 | 287 | 3.5 | 8.7 | 0.00 | 0.00 | 0.00 | 40 | 1011.0 |
| 20260506233016 | 51 | 288 | 4.3 | 10.4 | 0.00 | 0.00 | 0.00 | 40 | 1010.9 |
| 20260506232517 | 51 | 318 | 5.2 | 10.4 | 0.00 | 0.00 | 0.00 | 40 | 1011.0 |
| 20260506232016 | 51 | 300 | 5.2 | 10.4 | 0.00 | 0.00 | 0.00 | 39 | 1011.0 |
| 20260506231518 | 51 | 288 | 6.1 | 9.6 | 0.00 | 0.00 | 0.00 | 39 | 1011.0 |
| 20260506231017 | 51 | 289 | 5.2 | 12.2 | 0.00 | 0.00 | 0.00 | 39 | 1011.0 |
| 20260506230517 | 51 | 307 | 7.0 | 12.2 | 0.00 | 0.00 | 0.00 | 39 | 1011.0 |
| 20260506230017 | 52 | 300 | 5.2 | 10.4 | 0.00 | 0.00 | 0.00 | 38 | 1011.0 |
| 20260506225517 | 52 | 297 | 7.0 | 10.4 | 0.00 | 0.00 | 0.00 | 37 | 1011.0 |
| 20260506225037 | 53 | 264 | 5.2 | 10.4 | 0.00 | 0.00 | 0.00 | 37 | 1011.1 |
| 20260506224517 | 53 | 251 | 6.1 | 14.8 | 0.00 | 0.00 | 0.00 | 38 | 1011.1 |
| 20260506224018 | 53 | 275 | 7.8 | 14.8 | 0.00 | 0.00 | 0.00 | 37 | 1011.2 |
| 20260506223517 | 53 | 257 | 6.1 | 13.0 | 0.00 | 0.00 | 0.00 | 38 | 1011.1 |
| 20260506223017 | 52 | 260 | 7.8 | 14.8 | 0.00 | 0.00 | 0.00 | 39 | 1011.1 |
| 20260506222518 | 53 | 249 | 8.7 | 14.8 | 0.00 | 0.00 | 0.00 | 38 | 1011.1 |
| 20260506222016 | 53 | 287 | 9.6 | 17.4 | 0.00 | 0.00 | 0.00 | 37 | 1011.2 |
| 20260506221517 | 53 | 319 | 9.6 | 17.4 | 0.00 | 0.00 | 0.00 | 37 | 1011.1 |
| 20260506221016 | 52 | 305 | 7.0 | 13.0 | 0.00 | 0.00 | 0.00 | 38 | 1011.1 |
| 20260506220516 | 52 | 305 | 9.6 | 13.0 | 0.00 | 0.00 | 0.00 | 37 | 1011.1 |
| 20260506220016 | 52 | 293 | 7.0 | 12.2 | 0.00 | 0.00 | 0.00 | 37 | 1011.1 |
| 20260506215518 | 52 | 284 | 7.0 | 13.9 | 0.00 | 0.00 | 0.00 | 38 | 1011.1 |
| 20260506215017 | 52 | 304 | 8.7 | 13.9 | 0.00 | 0.00 | 0.00 | 37 | 1011.0 |
| 20260506214537 | 52 | 305 | 7.0 | 11.3 | 0.00 | 0.00 | 0.00 | 38 | 1010.9 |
| 20260506214016 | 52 | 301 | 7.0 | 13.9 | 0.00 | 0.00 | 0.00 | 37 | 1011.0 |
| 20260506213516 | 52 | 310 | 7.8 | 13.9 | 0.00 | 0.00 | 0.00 | 37 | 1011.1 |
| 20260506213017 | 52 | 308 | 7.0 | 12.2 | 0.00 | 0.00 | 0.00 | 38 | 1011.1 |
| 20260506212537 | 53 | 309 | 8.7 | 13.9 | 0.00 | 0.00 | 0.00 | 37 | 1011.0 |
| 20260506212016 | 53 | 317 | 8.7 | 14.8 | 0.00 | 0.00 | 0.00 | 36 | 1011.1 |
| 20260506211516 | 53 | 295 | 8.7 | 14.8 | 0.00 | 0.00 | 0.00 | 35 | 1011.0 |
| 20260506211017 | 53 | 290 | 7.8 | 13.9 | 0.00 | 0.00 | 0.00 | 37 | 1011.1 |
| 20260506210517 | 53 | 263 | 8.7 | 14.8 | 0.00 | 0.00 | 0.00 | 41 | 1011.1 |
| 20260506210016 | 52 | 293 | 8.7 | 14.8 | 0.00 | 0.00 | 0.00 | 36 | 1011.2 |
| 20260506205516 | 52 | 298 | 7.8 | 16.5 | 0.00 | 0.00 | 0.00 | 36 | 1011.1 |
| 20260506205016 | 52 | 288 | 9.6 | 16.5 | 0.00 | 0.00 | 0.00 | 37 | 1011.3 |
| 20260506204517 | 52 | 293 | 7.8 | 13.9 | 0.00 | 0.00 | 0.00 | 37 | 1011.3 |
| 20260506204036 | 52 | 289 | 7.8 | 16.5 | 0.00 | 0.00 | 0.00 | 37 | 1011.3 |
| 20260506203516 | 52 | 305 | 10.4 | 16.5 | 0.00 | 0.00 | 0.00 | 36 | 1011.3 |
| 20260506203016 | 52 | 276 | 7.8 | 16.5 | 0.00 | 0.00 | 0.00 | 39 | 1011.3 |
| 20260506202516 | 52 | 285 | 7.0 | 16.5 | 0.00 | 0.00 | 0.00 | 36 | 1011.3 |
| 20260506202016 | 52 | 267 | 10.4 | 26.9 | 0.00 | 0.00 | 0.00 | 36 | 1011.5 |
| 20260506201517 | 53 | 261 | 9.6 | 26.9 | 0.00 | 0.00 | 0.00 | 36 | 1011.6 |
| 20260506201016 | 53 | 268 | 5.2 | 13.0 | 0.00 | 0.00 | 0.00 | 40 | 1011.5 |
| 20260506200556 | 53 | 258 | 8.7 | 13.0 | 0.00 | 0.00 | 0.00 | 38 | 1011.7 |
| 20260506200016 | 53 | 260 | 10.4 | 13.0 | 0.00 | 0.00 | 0.00 | 37 | 1011.6 |
| 20260506195516 | 52 | 294 | 9.6 | 13.9 | 0.00 | 0.00 | 0.00 | 39 | 1011.7 |
| 20260506195016 | 52 | 314 | 7.8 | 16.5 | 0.00 | 0.00 | 0.00 | 35 | 1011.7 |
| 20260506194536 | 52 | 306 | 8.7 | 16.5 | 0.00 | 0.00 | 0.00 | 37 | 1011.8 |
| 20260506194016 | 52 | 308 | 7.8 | 15.6 | 0.00 | 0.00 | 0.00 | 36 | 1011.7 |
| 20260506193517 | 51 | 300 | 9.6 | 15.6 | 0.00 | 0.00 | 0.00 | 36 | 1011.8 |
| 20260506193016 | 51 | 296 | 9.6 | 14.8 | 0.00 | 0.00 | 0.00 | 36 | 1011.7 |
| 20260506192516 | 51 | 286 | 8.7 | 13.9 | 0.00 | 0.00 | 0.00 | 36 | 1011.7 |
| 20260506192037 | 51 | 286 | 6.1 | 13.9 | 0.00 | 0.00 | 0.00 | 35 | 1011.7 |
| 20260506191516 | 52 | 305 | 9.6 | 13.9 | 0.00 | 0.00 | 0.00 | 35 | 1011.8 |
| 20260506191017 | 52 | 274 | 8.7 | 13.9 | 0.00 | 0.00 | 0.00 | 35 | 1011.6 |
| 20260506190516 | 52 | 282 | 7.8 | 15.6 | 0.00 | 0.00 | 0.00 | 37 | 1011.6 |
| 20260506190016 | 51 | 290 | 8.7 | 15.6 | 0.00 | 0.00 | 0.00 | 36 | 1011.7 |
| 20260506185516 | 51 | 283 | 8.7 | 15.6 | 0.00 | 0.00 | 0.00 | 38 | 1011.8 |
| 20260506185016 | 51 | 300 | 9.6 | 15.6 | 0.00 | 0.00 | 0.00 | 36 | 1011.9 |
| 20260506184517 | 52 | 279 | 9.6 | 14.8 | 0.00 | 0.00 | 0.00 | 37 | 1011.9 |
| 20260506184016 | 51 | 262 | 8.7 | 14.8 | 0.00 | 0.00 | 0.00 | 36 | 1011.8 |
| 20260506183516 | 51 | 281 | 8.7 | 13.9 | 0.00 | 0.00 | 0.00 | 36 | 1011.9 |
| 20260506183016 | 52 | 287 | 7.8 | 14.8 | 0.00 | 0.00 | 0.00 | 37 | 1011.7 |
| 20260506182516 | 52 | 256 | 8.7 | 17.4 | 0.00 | 0.00 | 0.00 | 39 | 1011.7 |
| 20260506182016 | 51 | 295 | 10.4 | 17.4 | 0.00 | 0.00 | 0.00 | 40 | 1011.8 |
| 20260506181516 | 51 | 310 | 7.8 | 15.6 | 0.00 | 0.00 | 0.00 | 38 | 1011.6 |
| 20260506181016 | 51 | 313 | 10.4 | 15.6 | 0.00 | 0.00 | 0.00 | 36 | 1011.9 |
| 20260506180517 | 51 | 279 | 9.6 | 14.8 | 0.00 | 0.00 | 0.00 | 39 | 1011.7 |
| 20260506180036 | 51 | 279 | 7.8 | 14.8 | 0.00 | 0.00 | 0.00 | 39 | 1011.7 |
| 20260506175516 | 51 | 307 | 7.0 | 13.0 | 0.00 | 0.00 | 0.00 | 37 | 1011.8 |
| 20260506175016 | 51 | 311 | 5.2 | 13.0 | 0.00 | 0.00 | 0.00 | 38 | 1011.6 |
| 20260506174517 | 51 | 312 | 7.8 | 13.0 | 0.00 | 0.00 | 0.00 | 38 | 1011.7 |
| 20260506174016 | 51 | 269 | 5.2 | 13.9 | 0.00 | 0.00 | 0.00 | 37 | 1011.8 |
| 20260506173516 | 51 | 291 | 7.8 | 13.9 | 0.00 | 0.00 | 0.00 | 37 | 1011.7 |
| 20260506173017 | 51 | 275 | 7.0 | 16.5 | 0.00 | 0.00 | 0.00 | 38 | 1011.8 |
| 20260506172536 | 51 | 272 | 8.7 | 16.5 | 0.00 | 0.00 | 0.00 | 38 | 1011.9 |
| 20260506172016 | 51 | 284 | 8.7 | 13.9 | 0.00 | 0.00 | 0.00 | 37 | 1011.8 |
| 20260506171516 | 52 | 287 | 8.7 | 13.9 | 0.00 | 0.00 | 0.00 | 37 | 1011.8 |
| 20260506171017 | 51 | 321 | 7.8 | 13.0 | 0.00 | 0.00 | 0.00 | 39 | 1011.9 |
| 20260506170516 | 51 | 306 | 7.0 | 13.0 | 0.00 | 0.00 | 0.00 | 38 | 1011.9 |
| 20260506170037 | 50 | 295 | 5.2 | 9.6 | 0.00 | 0.00 | 0.00 | 38 | 1011.9 |
| 20260506165516 | 50 | 272 | 7.0 | 14.8 | 0.00 | 0.00 | 0.00 | 39 | 1012.0 |
| 20260506165016 | 50 | 301 | 6.1 | 14.8 | 0.00 | 0.00 | 0.00 | 38 | 1011.9 |
| 20260506164516 | 50 | 314 | 5.2 | 11.3 | 0.00 | 0.00 | 0.00 | 43 | 1011.9 |
| 20260506164016 | 50 | 321 | 7.8 | 12.2 | 0.00 | 0.00 | 0.00 | 40 | 1011.9 |
| 20260506163516 | 50 | 344 | 6.1 | 13.0 | 0.00 | 0.00 | 0.00 | 40 | 1011.9 |
| 20260506163016 | 50 | 344 | 8.7 | 14.8 | 0.00 | 0.00 | 0.00 | 42 | 1011.9 |
| 20260506162516 | 50 | 323 | 9.6 | 15.6 | 0.00 | 0.00 | 0.00 | 38 | 1011.8 |
| 20260506162016 | 51 | 331 | 5.2 | 15.6 | 0.00 | 0.00 | 0.00 | 39 | 1011.8 |
| 20260506161516 | 51 | 9 | 6.1 | 13.9 | 0.00 | 0.00 | 0.00 | 42 | 1011.8 |
| 20260506161037 | 50 | 310 | 7.8 | 13.9 | 0.00 | 0.00 | 0.00 | 40 | 1011.9 |
| 20260506160516 | 50 | 280 | 7.8 | 13.0 | 0.00 | 0.00 | 0.00 | 39 | 1011.9 |
| 20260506160016 | 50 | 291 | 7.8 | 13.0 | 0.00 | 0.00 | 0.00 | 39 | 1011.9 |
| 20260506155536 | 50 | 318 | 4.3 | 11.3 | 0.00 | 0.00 | 0.00 | 39 | 1012.0 |
| 20260506155016 | 50 | 324 | 6.1 | 11.3 | 0.00 | 0.00 | 0.00 | 39 | 1012.0 |
| 20260506154536 | 50 | 292 | 5.2 | 10.4 | 0.00 | 0.00 | 0.00 | 40 | 1011.9 |
| 20260506154016 | 50 | 314 | 7.0 | 13.9 | 0.00 | 0.00 | 0.00 | 43 | 1011.9 |
| 20260506153516 | 50 | 308 | 9.6 | 13.9 | 0.00 | 0.00 | 0.00 | 38 | 1012.0 |
| 20260506153016 | 50 | 278 | 6.1 | 10.4 | 0.00 | 0.00 | 0.00 | 37 | 1011.8 |
| 20260506152536 | 51 | 1 | 5.2 | 9.6 | 0.00 | 0.00 | 0.00 | 42 | 1011.9 |
| 20260506152037 | 50 | 323 | 3.5 | 7.8 | 0.00 | 0.00 | 0.00 | 41 | 1011.9 |
| 20260506151516 | 50 | 319 | 2.6 | 7.0 | 0.00 | 0.00 | 0.00 | 44 | 1011.9 |
| 20260506151016 | 50 | 38 | 2.6 | 7.0 | 0.00 | 0.00 | 0.00 | 42 | 1012.0 |
| 20260506150536 | 49 | 16 | 2.6 | 7.8 | 0.00 | 0.00 | 0.00 | 43 | 1012.0 |
| 20260506150016 | 48 | 316 | 3.5 | 7.8 | 0.00 | 0.00 | 0.00 | 41 | 1011.9 |